Weather History for ESSB - December, 2013

Change the Weather History Date:

Monday, December 30, 2013

  Actual Average Record
Temperature  
Mean Temperature 37 °F -  
Max Temperature 41 °F 31 °F 44 °F (2006)
Min Temperature 33 °F 24 °F 5 °F (2002)
Degree Days  
Heating Degree Days 28    
Moisture  
Dew Point 34 °F    
Average Humidity 84    
Maximum Humidity 93    
Minimum Humidity 74    
Precipitation  
Precipitation 0.00 in - - ()
Sea Level Pressure  
Sea Level Pressure 29.88 in    
Wind  
Wind Speed 8 mph ()    
Max Wind Speed 15 mph    
Max Gust Speed -    
Visibility 8.4 miles    
Events      
Averages and records for this station are not official NWS values.
T = Trace of Precipitation, MM = Missing Value Source: Averaged Metar Reports

Daily Weather History Graph

Daily Weather History Graph

Search for Another Location

Airport or City:

Trip Planner

Search our weather history database for the weather conditions in past years. The results will help you decide how hot, cold, wet, or windy it might be!

Date:

Astronomy

Dec. 30, 2013 Rise Set
Actual Time 8:45 AM CET 2:56 PM CET
Civil Twilight 7:50 AM CET 3:51 PM CET
Nautical Twilight 6:55 AM CET 4:46 PM CET
Astronomical Twilight 6:05 AM CET 5:36 PM CET
Moon 5:58 AM CET (12/30) 1:27 PM CET (12/30)
Length of Visible Light 8h 01m
Length of Day
6h 10m
Waning Crescent, 6% of the Moon is Illuminated
Dec 30
Waning Crescent
Jan 1
New
Jan 8
First Quarter
Jan 16
Full
Jan 24
Last Quarter

Hourly Weather History & Observations

Time (CET) Temp. Windchill Dew Point Humidity Pressure Visibility Wind Dir Wind Speed Gust Speed Precip Events Conditions
12:00 AM 41 °F - 37 °F 80% 29.65 in 22 mi SW 6.7 mph - -   Mostly Cloudy
12:20 AM 41.0 °F 36.4 °F 37.4 °F 87% 29.65 in 6.2 mi SW 6.9 mph - N/A   Mostly Cloudy
12:50 AM 41.0 °F 34.7 °F 37.4 °F 87% 29.65 in 6.2 mi SW 10.4 mph - N/A   Overcast
1:00 AM 41 °F - 36 °F 78% 29.67 in 25 mi SW 6.7 mph - -   Overcast
1:20 AM 41.0 °F 35.8 °F 35.6 °F 81% 29.65 in 6.2 mi SW 8.1 mph - N/A   Overcast
1:50 AM 41.0 °F 35.2 °F 35.6 °F 81% 29.68 in 6.2 mi SW 9.2 mph - N/A   Mostly Cloudy
2:00 AM 40 °F - 36 °F 80% 29.69 in 22 mi SW 6.7 mph - -   Scattered Clouds
2:20 AM 41.0 °F 34.7 °F 35.6 °F 81% 29.68 in 6.2 mi SW 10.4 mph - N/A   Overcast
2:50 AM 41.0 °F 35.2 °F 35.6 °F 81% 29.68 in 6.2 mi SW 9.2 mph - N/A   Overcast
3:00 AM 41 °F - 36 °F 77% 29.71 in 25 mi SW 8.9 mph - -   Scattered Clouds
3:20 AM 41.0 °F 35.2 °F 35.6 °F 81% 29.71 in 6.2 mi WSW 9.2 mph - N/A   Overcast
3:50 AM 41.0 °F 34.3 °F 35.6 °F 81% 29.71 in 6.2 mi WSW 11.5 mph - N/A   Overcast
4:00 AM 41 °F - 36 °F 77% 29.73 in 22 mi WSW 8.9 mph - -   Overcast
4:20 AM 41.0 °F 34.3 °F 35.6 °F 81% 29.71 in 6.2 mi WSW 11.5 mph - N/A   Overcast
4:50 AM 39.2 °F 32.5 °F 35.6 °F 87% 29.71 in 6.2 mi WSW 10.4 mph - N/A   Mostly Cloudy
5:00 AM 39 °F - 35 °F 81% 29.74 in 19 mi SW 8.9 mph - -   Scattered Clouds
5:20 AM 39.2 °F 32.0 °F 35.6 °F 87% 29.74 in 6.2 mi WSW 11.5 mph - N/A   Unknown
5:50 AM 37.4 °F 29.8 °F 35.6 °F 93% 29.74 in 6.2 mi WSW 11.5 mph - N/A   Scattered Clouds
6:00 AM 38 °F - 35 °F 84% 29.76 in 22 mi WSW 8.9 mph - -   Scattered Clouds
6:20 AM 39.2 °F 31.2 °F 35.6 °F 87% 29.77 in 6.2 mi WSW 13.8 mph - N/A   Mostly Cloudy
6:50 AM 37.4 °F 28.5 °F 33.8 °F 87% 29.77 in 6.2 mi WSW 15.0 mph - N/A   Partly Cloudy
7:00 AM 37 °F - 34 °F 84% 29.79 in 25 mi WSW 11.2 mph - -  
7:20 AM 37.4 °F 29.3 °F 33.8 °F 87% 29.77 in - WSW 12.7 mph - N/A   Clear
7:50 AM 37.4 °F 30.8 °F 33.8 °F 87% 29.80 in - WSW 9.2 mph - N/A   Clear
8:00 AM 36 °F - 33 °F 86% 29.83 in 28 mi WSW 6.7 mph - -  
8:20 AM 35.6 °F 27.5 °F 33.8 °F 93% 29.80 in - WSW 11.5 mph - N/A   Clear
8:50 AM 35.6 °F 27.5 °F 32.0 °F 87% 29.83 in - WSW 11.5 mph - N/A   Clear
9:00 AM 36 °F - 32 °F 81% 29.86 in 31 mi WSW 8.9 mph - -  
9:20 AM 35.6 °F 28.0 °F 32.0 °F 87% 29.86 in - West 10.4 mph - N/A   Clear
9:50 AM 35.6 °F 28.0 °F 32.0 °F 87% 29.86 in - West 10.4 mph - N/A   Clear
10:00 AM 36 °F - 32 °F 81% 29.89 in 28 mi WSW 8.9 mph - -  
10:20 AM 37.4 °F 30.3 °F 32.0 °F 81% 29.89 in - WSW 10.4 mph - N/A   Clear
10:50 AM 37.4 °F 30.3 °F 33.8 °F 87% 29.89 in - WSW 10.4 mph - N/A   Clear
11:00 AM 37 °F - 33 °F 79% 29.92 in 28 mi WSW 8.9 mph - -  
11:20 AM 37.4 °F 29.8 °F 33.8 °F 87% 29.92 in - WSW 11.5 mph - N/A   Clear
11:50 AM 37.4 °F 29.8 °F 33.8 °F 87% 29.92 in 6.2 mi WSW 11.5 mph - N/A   Partly Cloudy
12:00 PM 38 °F - 34 °F 78% 29.94 in 28 mi WSW 8.9 mph - -  
12:20 PM 37.4 °F 30.3 °F 33.8 °F 87% 29.92 in 6.2 mi WSW 10.4 mph - N/A   Partly Cloudy
12:50 PM 37.4 °F 30.8 °F 33.8 °F 87% 29.95 in 6.2 mi WSW 9.2 mph - N/A   Partly Cloudy
1:00 PM 38 °F - 33 °F 77% 29.96 in 19 mi WSW 6.7 mph - -  
1:20 PM 37.4 °F 30.8 °F 33.8 °F 87% 29.95 in - WSW 9.2 mph - N/A   Clear
1:50 PM 37.4 °F 30.3 °F 32.0 °F 81% 29.95 in - WSW 10.4 mph - N/A   Clear
2:00 PM 38 °F - 33 °F 74% 29.97 in 28 mi WSW 8.9 mph - -  
2:20 PM 37.4 °F 30.3 °F 32.0 °F 81% 29.98 in - SW 10.4 mph - N/A   Clear
2:50 PM 37.4 °F 32.1 °F 32.0 °F 81% 29.98 in - WSW 6.9 mph - N/A   Clear
3:00 PM 37 °F - 32 °F 76% 29.99 in 31 mi WSW 6.7 mph - -  
3:20 PM 37.4 °F 32.1 °F 32.0 °F 81% 29.98 in - WSW 6.9 mph - N/A   Clear
3:50 PM 35.6 °F 30.7 °F 32.0 °F 87% 29.98 in - SW 5.8 mph - N/A   Clear
4:00 PM 35 °F - 32 °F 85% 30.01 in 28 mi SW 4.5 mph - -  
4:20 PM 33.8 °F 29.6 °F 32.0 °F 93% 29.98 in - SSW 4.6 mph - N/A   Clear
4:50 PM 33.8 °F 27.7 °F 32.0 °F 93% 29.98 in 6.2 mi SSW 6.9 mph - N/A   Partly Cloudy
5:00 PM 36 °F - 33 °F 86% 30.01 in 25 mi SSW 6.7 mph - -   Mostly Cloudy
5:20 PM 37.4 °F 31.4 °F 33.8 °F 87% 30.01 in 6.2 mi SSW 8.1 mph - N/A   Mostly Cloudy
5:50 PM 37.4 °F 32.1 °F 33.8 °F 87% 30.01 in 6.2 mi SSW 6.9 mph - N/A   Mostly Cloudy
6:00 PM 38 °F - 35 °F 82% 30.02 in 28 mi SSW 6.7 mph - -   Overcast
6:20 PM 39.2 °F 33.6 °F 35.6 °F 87% 30.01 in 6.2 mi SSW 8.1 mph - N/A   Mostly Cloudy
6:50 PM 39.2 °F 34.2 °F 35.6 °F 87% 30.01 in 6.2 mi SSW 6.9 mph - N/A   Mostly Cloudy
7:00 PM 39 °F - 35 °F 80% 30.03 in 25 mi SSW 4.5 mph - -   Mostly Cloudy
7:20 PM 37.4 °F 32.8 °F 35.6 °F 93% 30.01 in 6.2 mi SSW 5.8 mph - N/A   Scattered Clouds
7:50 PM 37.4 °F 32.1 °F 35.6 °F 93% 30.01 in 6.2 mi SSW 6.9 mph - N/A   Scattered Clouds
8:00 PM 38 °F - 34 °F 81% 30.03 in 19 mi SSW 6.7 mph - -   Scattered Clouds
8:20 PM 37.4 °F 32.8 °F 33.8 °F 87% 30.01 in 6.2 mi South 5.8 mph - N/A   Partly Cloudy
9:00 PM 37 °F - 34 °F 83% 30.03 in 19 mi South 6.7 mph - -  
9:20 PM 37.4 °F 32.1 °F 33.8 °F 87% 30.01 in - South 6.9 mph - N/A   Clear
9:50 PM 37.4 °F 31.4 °F 33.8 °F 87% 30.01 in - SSW 8.1 mph - N/A   Clear
10:00 PM 37 °F - 33 °F 81% 30.02 in 19 mi South 8.9 mph - -  
10:20 PM 37.4 °F 30.8 °F 33.8 °F 87% 30.01 in 6.2 mi SSW 9.2 mph - N/A   Unknown
10:50 PM 37.4 °F 32.1 °F 33.8 °F 87% 30.01 in 6.2 mi South 6.9 mph - N/A   Unknown
11:00 PM 37 °F - 33 °F 81% 30.03 in 18 mi South 6.7 mph - -   Scattered Clouds
11:20 PM 37.4 °F 32.1 °F 33.8 °F 87% 30.01 in 6.2 mi South 6.9 mph - N/A   Partly Cloudy
11:50 PM 37.4 °F 32.1 °F 33.8 °F 87% 30.01 in 6.2 mi South 6.9 mph - N/A   Unknown